Weather in Telyatniki

Russia / Ryazan Oblast     53°38′07″N   40°58′55″E
temp.,
°C
wind,
m/s
gust,
m/s
humid.,
%
clouds,
%
prec.,
mm/h
press.,
hPa
HPBL,
m
7 march, sun
sun700:00−13w46920 0.0 101692
03:00−14wsw47920 0.0 101596
06:00−14sw48943 0.0 1014129
09:00−9sw7158851 0.0 1010460
12:00−6sw101693100 0.3 1006906
15:00−4sw111893100 1.4 10011245
18:00−3sw101793100 1.8 9981133
21:00−2sw111993100 2.5 9941179
8 march, mon
mon800:00−5wnw51391100 1.4 995793
03:00−8w7158475 1.4 999447
06:00−10wsw513890 0.0 1000299
09:00−8wsw5119043 0.0 1000398
12:00−5wsw71088100 0.1 1000869
15:00−4w71086100 0.2 10011126
18:00−7wnw51184100 0.3 1003565
21:00−11wnw499050 0.3 1007162
9 march, tue
tue900:00−13nw34950 0.0 100839
03:00−15wnw349818 0.0 101033
06:00−16wnw349697 0.0 101263
09:00−14nw479599 0.0 1013234
12:00−11nw459298 0.0 1014421
15:00−10nw468899 0.1 1015704
18:00−12wnw4893100 0.1 1016280
21:00−16nw489793 0.1 1019138
10 march, wed
wed1000:00−17nnw359797 0.1 102091
03:00−21nw349977 0.1 102155
06:00−24nw449966 0.0 102383
09:00−23nnw479665 0.0 1025227
12:00−19nw469161 0.0 1026398
15:00−16nw468640 0.0 1026482
18:00−20nw34957 0.0 102733
21:00−22nw33964 0.0 102921
11 march, thu
thu1100:00−23nw23960 0.0 102920
03:00−24w22970 0.0 103020
06:00−24wsw23930 0.0 103020
09:00−20wsw24882 0.0 1030106
12:00−15sw34805 0.0 1030229
15:00−13ssw358614 0.0 1029260
18:00−16s489171 0.0 1028143
21:00−17s4109052 0.0 1028148